Regional Weather Roundup
Issued by NWS Memphis, TN

Home | Current Version | Previous Version | Text Only | Print | Product List | Glossary On
Versions: 1 2 3 4 5 6 7 8 9 10 11 12 13 14 15 16 17 18 19 20 21 22 23 24 25 26 27 28 29 30 31 32 33 34 35 36 37 38 39 40 41 42 43 44 45 46 47 48 49 50
000
ASUS44 KMEG 221910
RWRMEG
MEMPHIS CWA HOURLY WEATHER ROUNDUP
NATIONAL WEATHER SERVICE MEMPHIS TN
100 PM CST THU FEB 22 2018

...WEST TENNESSEE...

CITY           SKY/WX    TMP DP  RH WIND       PRES   REMARKS
MEMPHIS INTL   CLOUDY    50  48  93 E6        30.32F
NWS MEMPHIS      N/A     49 N/A N/A MISG        N/A
JACKSON        CLOUDY    52  51  97 E3        30.33F FOG
COVINGTON      CLOUDY    50  48  93 CALM      30.34F
BOLIVAR        CLOUDY    52  50  93 CALM      30.32F
LEXINGTON      CLOUDY    54  54 100 CALM      30.34F FOG
SELMER         CLOUDY    54  52  94 CALM      30.34F FOG
SAVANNAH       CLOUDY    55  55 100 CALM      30.34F
DYERSBURG      CLOUDY    50  47  89 E5        30.34F
UNION CITY     CLOUDY    50  48  93 SE3       30.34F
PARIS          CLOUDY    54  50  87 SW6       30.33F
HUNTINGDON     CLOUDY    54  52  94 CALM      30.33F


...EASTERN ARKANSAS...

CITY           SKY/WX    TMP DP  RH WIND       PRES   REMARKS
JONESBORO      CLOUDY    45  44  97 E6        30.35F
WEST MEMPHIS   CLOUDY    48  32  53 CALM      30.32F
NEWPORT          N/A     43  41  93 CALM      30.36F
WALNUT RIDGE   CLOUDY    42  41  96 CALM      30.36F
BLYTHEVILLE    CLOUDY    49  48  97 CALM      30.34F
SEARCY         CLOUDY    47  45  93 E7        30.34F
STUTTGART      CLOUDY    46  44  93 NE10      30.33F
PINE BLUFF     CLOUDY    44  43  96 NE8       30.32F
MONTICELLO     CLOUDY    46  44  93 NE5       30.33F


...NORTH MISSISSIPPI...

CITY           SKY/WX    TMP DP  RH WIND       PRES   REMARKS
TUPELO         PTSUNNY   67  63  87 SE6       30.30F
OXFORD         CLOUDY    50  50 100 NE6       30.34F
BATESVILLE       N/A    N/A N/A N/A MISG        N/A
OLIVE BRANCH   CLOUDY    48  48 100 CALM      30.31F
TUNICA           N/A     45  45 100 NE3       30.34F
CLARKSDALE     CLOUDY    48  48 100 NE6       30.32F
GREENWOOD      CLOUDY    56  54  93 N5        30.30F
COLUMBUS       CLOUDY    68  67  99 NE3       30.32F
STARKVILLE     FAIR      72  63  73 NE3       30.32F
GOLDEN TRIANGL FAIR      75  62  64 VRB5      30.32F


...SOUTHEAST MISSOURI...

CITY           SKY/WX    TMP DP  RH WIND       PRES   REMARKS
KENNETT        CLOUDY    46  45  93 E6        30.33F
MALDEN         CLOUDY    45  43  93 E5        30.35F
WEST PLAINS    CLOUDY    39  39 100 S6        30.32F FOG     WCI  35
POPLAR BLUFF   CLOUDY    44  42  93 E7        30.33F
CAPE GIRARDEAU CLOUDY    45  44  97 NE7       30.33F


...NORTHWEST ALABAMA...

CITY           SKY/WX    TMP DP  RH WIND       PRES   REMARKS
MUSCLE SHOALS  CLOUDY    69  63  81 SW6       30.36F


...MIDDLE TENNESSEE...

CITY           SKY/WX    TMP DP  RH WIND       PRES   REMARKS
NASHVILLE      CLOUDY    57  56  96 NW14G26   30.36S FOG
CLARKSVILLE    CLOUDY    55  51  86 CALM      30.33F
COLUMBIA       PTSUNNY   66  66 100 SW9G16    30.32F


...WESTERN KENTUCKY...

CITY           SKY/WX    TMP DP  RH WIND       PRES   REMARKS
PADUCAH        CLOUDY    49  46  90 E3        30.33F
FORT CAMPBELL  PTSUNNY   57  54  88 CALM      30.32


...CENTRAL ARKANSAS...

CITY           SKY/WX    TMP DP  RH WIND       PRES   REMARKS
LITTLE ROCK    CLOUDY    45  43  93 E6        30.34F


SKY/WX REPORTED AS FAIR MEANS FEW OR NO CLOUDS BELOW
12 THOUSAND FEET.





USA.gov is the U.S. government's official web portal to all federal, state and local government web resources and services.